User: anonymous   Login
Location: Newark
(34.6283°N, 36.0776°E)
Time: 14:23:50
(UTC+00:00)
Language:

Explorer 11/Cluster Stage 4 - Orbit

View from above orbital plane
View from above orbital plane
View from above satellite
View from above satellite

Ground track
Ground track

The orbit data is extracted from the following two-line orbital elements,

1   107U 61013A   19259.48436475 +.00000226 +00000-0 +11857-4 0  9992
2   107 028.7866 294.2403 0547439 103.9552 262.2491 14.08824225927413
Epoch (UTC): 16 September 2019 11:37:29
Eccentricity: 0.0547439
inclination: 28.7866°
perigee height: 467 km
apogee height: 1260 km
right ascension of ascending node: 294.2403°
argument of perigee: 103.9552°
revolutions per day: 14.08824225
mean anomaly at epoch: 262.2491°
orbit number at epoch: 92741

The dashed part of the orbit path shows where the satellite is in the earth's shadow,  

DLR